Location: Bottisham
(52.2167°N, 0.2667°E)
Time: 23:08:05
(UTC+00:00)

Daily predictions for brighter satellites

Satellite Brightness Start Highest point End
(mag) Time Altitude Azimuth Time Altitude Azimuth Time Altitude Azimuth
Cosmos 2227 Rocket 2.3 16:19:19 10° SSW 16:24:59 84° ESE 16:30:40 10° NNE
Cosmos 44 3.7 16:19:56 10° NW 16:25:23 80° SW 16:30:35 10° SE
Cosmos 1140 Rocket 4.0 16:21:14 10° NNW 16:26:03 37° NE 16:30:49 10° ESE
Cosmos 1939 Rocket 4.5 16:24:45 10° SSW 16:28:33 40° W 16:32:23 10° NNW
SAR-Lupe-2 3.7 16:27:30 10° SE 16:30:59 51° ENE 16:34:29 10° N
Cosmos 1666 3.1 16:29:43 10° N 16:33:00 35° ENE 16:36:16 10° SE
Spot 4 Rocket 4.4 16:28:30 10° S 16:33:38 74° WSW 16:38:48 10° NNW
ARGOS 3.5 16:29:25 10° S 16:34:51 75° WSW 16:40:18 10° NNW
Cosmos 1603 4.1 16:30:32 10° NNW 16:35:56 41° NE 16:41:16 10° ESE
PSLV R/B 3.8 16:35:21 10° S 16:39:36 76° WSW 16:43:56 10° NNW
Cosmos 1076 Rocket 3.5 16:35:57 10° N 16:40:19 65° ENE 16:44:38 10° SSE
CZ-2C R/B 3.8 16:37:05 10° N 16:42:03 41° WNW 16:46:54 10° SW
Meteor 1-31 Rocket 3.2 16:40:51 10° SE 16:44:14 36° ENE 16:47:41 10° N
Cosmos 1544 2.8 16:41:57 10° NNW 16:45:13 84° W 16:48:28 10° S
USA 306 3.7 16:43:33 10° W 16:45:30 24° SSW 16:47:19 10° SSE
Tsikada Rocket 4.3 16:41:14 10° SSW 16:47:25 71° WNW 16:53:37 10° N
SL-16 R/B 3.2 16:43:31 10° NW 16:49:01 52° WSW 16:54:30 10° S
SJ-7 4.3 16:45:13 10° SSE 16:49:12 73° ENE 16:53:15 10° N
ATLAS CENTAUR R/B 2.5 16:45:34 10° WNW 16:49:13 81° SSW 16:56:16 10° SE
Cosmos 1238 Rocket 3.3 16:47:04 10° SSW 16:50:27 47° WNW 16:53:29 10° N
Cosmos 1602 3.8 16:48:18 10° N 16:51:55 47° ENE 16:55:32 10° SSE
RESURS DK-1 3.8 16:50:55 10° N 16:53:56 19° NE 16:56:13 13° ENE
USA 305 3.2 16:50:25 10° WNW 16:54:10 59° SSW 16:57:57 10° SE
Cosmos 1607 4.0 16:50:37 10° SW 16:56:57 81° SE 17:03:17 11° NE
Cosmos 1606 4.1 16:54:17 10° SW 16:57:40 35° WNW 17:01:05 10° N
Cosmos 1943 3.1 16:54:26 10° NNW 17:00:05 73° ENE 17:05:44 10° SE
CZ-4B R/B 3.9 16:55:38 10° SE 17:00:17 39° ENE 17:04:50 10° N
Helios 1A 4.2 16:58:42 12° NE 17:01:24 21° E 17:04:37 10° SE
ATLAS 2AS CENTAUR R/B 3.0 16:55:09 10° NW 17:01:59 48° NNE 17:08:28 10° ESE
Cosmos 1782 4.3 16:59:54 10° SE 17:02:21 16° E 17:03:03 16° ENE
Cosmos 1812 Rocket 4.5 16:58:59 10° SE 17:02:38 27° E 17:06:19 10° NNE
Cosmos 1500 3.1 17:00:08 10° NNW 17:03:40 77° W 17:07:11 10° S
SMAP 3.0 17:02:13 10° SSE 17:06:52 78° ENE 17:11:33 10° NNW
Helios 1B rocket 3.1 17:03:30 10° S 17:07:22 56° WSW 17:11:17 10° NNW
CZ-4B R/B 3.5 17:06:39 10° SSE 17:10:13 68° ENE 17:13:53 10° N
Cosmos 407 Rocket 3.5 17:06:26 10° NNW 17:11:34 58° ENE 17:16:37 10° SE
SL-16 R/B 4.1 17:07:03 10° N 17:12:30 32° NW 17:17:55 10° WSW
Cosmos 2297 Rocket 3.5 17:08:03 10° WSW 17:13:12 35° NW 17:18:22 10° NNE
Radarsat Rocket 4.2 17:09:13 10° SE 17:14:46 47° ENE 17:20:42 10° N
Cosmos 405 Rocket 3.5 17:12:43 10° SSW 17:16:27 52° WNW 17:20:16 10° N
ISS -0.9 17:15:18 10° W 17:17:45 19° SW 17:20:11 10° SSE
Cosmos 2251 Rocket 3.5 17:14:00 10° NNW 17:19:22 70° ENE 17:24:42 10° SSE
Cosmos 2219 3.5 17:14:03 10° SW 17:19:38 65° NW 17:25:17 10° NNE
ADEOS Rocket 4.4 17:22:48 14° NE 17:22:48 14° NE 17:25:35 10° NNE
Cosmos 220 Rocket 4.4 17:19:04 10° NNW 17:23:08 38° NE 17:27:08 10° SE
Cosmos 1954 Rocket 4.5 17:21:07 10° NNW 17:26:02 38° NE 17:30:53 10° ESE
Lacrosse 5 3.3 17:26:25 10° S 17:30:12 22° SE 17:31:43 19° ESE
COSMO-SKYMED 1 3.4 17:29:30 24° ENE 17:30:55 29° E 17:34:42 10° SSE
Lacrosse 4 Rocket 1.9 17:27:34 10° NW 17:31:53 64° WSW 17:36:05 10° SSE
Cosmos-2242 3.0 17:27:46 10° S 17:32:02 62° E 17:36:20 10° NNE
Cosmos 1833 Rocket 3.9 17:28:21 10° NNW 17:32:40 22° NNE 17:33:48 20° NE
Cosmos 2082 3.8 17:29:04 10° SW 17:34:41 76° WNW 17:39:46 13° NNE
Cosmos 2058 Rocket 4.0 17:30:50 10° SSW 17:35:08 49° WNW 17:39:26 10° N
Cosmos 1553 Rocket 4.5 17:31:56 10° N 17:37:44 36° ENE 17:43:25 10° SE
APEX 3.0 17:37:24 10° S 17:39:58 37° SE 17:39:58 37° SE
Meteor 1-25 Rocket 4.1 17:35:22 10° NNW 17:41:05 83° ENE 17:46:42 10° SSE
USA 234 3.8 17:37:35 22° ENE 17:41:24 42° SE 17:47:32 10° SSW
Meteor 2-2 Rocket 4.4 17:36:12 10° S 17:41:48 56° E 17:47:35 10° NNE
Cosmos 2344 3.7 17:35:31 10° SSW 17:42:41 49° ESE 17:47:04 23° ENE
Cosmos 2221 4.0 17:39:19 10° SE 17:41:02 19° ESE 17:41:02 19° ESE
Cosmos 1190 Rocket 4.0 17:38:22 10° NNW 17:43:40 63° ENE 17:48:55 10° SE
Cosmos 1812 2.4 17:41:27 10° S 17:45:07 80° E 17:47:41 19° NNE
Cosmos 1818 4.0 17:41:26 10° SSW 17:46:34 45° ESE 17:48:45 30° ENE
USA 276 2.8 17:46:01 10° SW 17:48:03 32° S 17:48:03 32° S
Cosmos 2026 Rocket 4.1 17:42:57 10° SSE 17:48:59 52° E 17:55:08 10° NNE
IGS 5A 4.4 17:55:43 29° NNE 17:55:43 29° NNE 17:58:14 10° N
Cosmos 2195 Rocket 4.4 17:49:49 10° S 17:56:03 67° E 18:02:17 10° NNE
Cosmos 44 Rocket 4.4 17:52:24 10° NW 17:56:58 29° NNE 17:57:40 28° NE
Cosmos 2263 Rocket 2.7 17:55:20 10° SW 18:00:48 58° NW 18:05:03 17° NNE
CZ-4B R/B 4.2 18:01:43 27° NE 18:01:43 27° NE 18:05:33 10° N
Cosmos 1844 Rocket 3.1 17:55:44 10° S 18:00:53 41° ESE 18:02:02 36° E
Cosmos 1766 Rocket 3.6 17:58:26 10° N 18:02:44 53° ENE 18:06:59 10° SSE
YAOGAN 1 2.9 18:07:02 44° NE 18:07:02 44° NE 18:10:32 10° N
Cosmos 1092 Rocket 3.8 18:00:22 10° S 18:06:26 69° E 18:12:34 10° NNE
Nadezhda 4 Rocket 4.2 18:00:26 10° SSW 18:06:34 71° WNW 18:12:42 10° N
Cosmos 1933 3.2 18:03:43 10° S 18:07:39 63° E 18:07:55 61° ENE
Cosmos 1420 Rocket 4.3 18:03:15 10° S 18:08:09 41° ESE 18:08:27 41° E
Cosmos 2227 4.1 18:03:39 10° SSW 18:09:25 83° ESE 18:12:31 29° NNE
Cosmos 2227 Rocket 3.9 18:04:59 10° W 18:09:44 27° NW 18:14:00 12° NNE
Cosmos 2082 Rocket 3.8 18:06:09 10° NNW 18:09:22 17° NNE 18:09:22 17° NNE
YAOGAN 3 4.4 18:07:08 10° SSE 18:11:23 63° ENE 18:15:41 10° N
ADEOS 3.4 18:06:26 10° SSE 18:11:39 79° ENE 18:16:53 10° NNW
Meteor 1-5 Rocket 4.1 18:06:07 10° N 18:11:48 76° ENE 18:17:39 10° SSE
Cosmos 1624 Rocket 4.3 18:11:02 10° S 18:15:39 43° ESE 18:15:39 43° ESE
BREEZE-M DEB (TANK) 3.3 18:14:04 10° WSW 18:15:04 26° SW 18:15:04 26° SW
SKYMED 2 3.4 18:18:08 50° NNE 18:19:13 79° ESE 18:23:34 10° SSW
CZ-4B R/B 3.3 18:20:41 51° NNE 18:20:41 51° NNE 18:23:58 10° N
SL-08 R/B 3.1 18:25:44 65° ESE 18:25:44 65° ESE 18:30:13 10° S
Cosmos 192 4.2 18:23:27 10° SSW 18:28:19 70° ESE 18:28:35 68° E
RESURS DK-1 2.4 18:28:10 10° NNW 18:31:56 73° NW 18:31:56 73° NW
Meteor 2-17 Rocket 4.5 18:28:55 10° SSW 18:35:04 80° WNW 18:41:14 10° N
Helios 1A 3.8 18:35:01 28° N 18:36:54 48° WNW 18:40:53 10° SW
Cosmos 676 Rocket 4.0 18:32:14 10° NNW 18:37:35 83° WSW 18:40:04 32° SSE
Cosmos 1782 3.4 18:33:59 10° SSW 18:37:49 55° WNW 18:38:16 51° NW
EO 1 Delta rocket 4.5 18:44:00 10° S 18:50:31 74° W 18:55:45 10° NNW
ATLAS 2AS CENTAUR R/B 2.9 18:46:21 10° NW 18:53:13 65° SW 18:56:38 30° SSE
CZ-4B DEB 4.3 18:53:04 21° S 18:56:53 78° WSW 19:02:29 10° NNW
Cosmos 2297 Rocket 4.4 18:56:07 10° NW 18:59:03 14° NNW 19:00:58 12° N
Cosmos 1241 Rocket 4.5 18:54:51 10° SSW 19:00:35 64° SSE 19:00:35 64° SSE
ADEOS Rocket 4.1 19:09:44 30° N 19:09:44 30° N 19:12:39 10° N
COSMO-SKYMED 1 3.8 19:06:43 37° NW 19:07:11 39° WNW 19:11:13 10° SW
Cosmos 2056 Rocket 3.8 19:04:22 10° SSW 19:09:06 66° WSW 19:09:06 66° WSW
Lacrosse 5 2.7 19:07:30 10° SW 19:10:56 43° SW 19:10:56 43° SW
Cosmos 1844 3.8 19:06:59 10° SW 19:12:19 73° WSW 19:12:19 73° WSW
COSMOS 2455 4.2 19:07:34 10° SSW 19:10:15 27° S 19:10:15 27° S
Timation 2 Rocket 3.9 19:09:47 10° SW 19:15:41 76° WNW 19:15:41 76° WNW
Cosmos 1833 Rocket 3.6 19:11:55 10° NNW 19:15:30 40° NNW 19:15:30 40° NNW
S3M 4.3 19:15:22 10° NNW 19:20:10 57° NNW 19:20:10 57° NNW
USA 234 3.1 19:24:56 85° WNW 19:24:56 85° WNW 19:31:23 10° WSW
Cosmos 1818 4.5 19:24:52 10° WSW 19:29:25 46° WNW 19:29:25 46° WNW
Cosmos 1844 Rocket 3.8 19:39:26 10° WSW 19:43:44 40° W 19:43:44 40° W
Cosmos 2263 Rocket 4.3 19:42:06 10° WNW 19:45:58 19° NNW 19:46:45 18° NNW
Cosmos 2082 Rocket 4.3 19:49:48 10° NNW 19:51:11 18° NNW 19:51:11 18° NNW
Cosmos 2344 3.9 19:49:49 10° WSW 19:56:58 55° NNW 19:57:06 55° NNW
